Flag for Germany Past Weather in Rheinfelden (Baden), Baden-Württemberg, Germany — Yesterday and Last 2 Weeks

Now
63 °F

Clear.


Feels Like: 63 °F
Forecast: 64 / 90 °F
Wind: 2 mph from Southwest

Location: Bale-Mulhouse

Current Time: Aug 27, 2016 at 5:10:56 AM

Latest Report: Aug 27, 2016 at 4:30 AM


Visibility: 10 mi

Pressure: 30.07 "Hg

Humidity: 94%

Dew Point: 61 °F

Location of Rheinfelden (Baden)Location

Past Weather in Rheinfelden (Baden) — Graph

°F

Rheinfelden (Baden) Temperature Yesterday

Maximum temperature yesterday: 95 °F (at 4:30 PM)
Minimum temperature yesterday: 63 °F (at 1:30 AM)
Average temperature yesterday: 77 °F

High & Low Weather Summary for the Past Weeks

 TemperatureHumidityPressure
High95 °F (Aug 26, 4:30 PM)100% (Aug 16, 7:30 AM)30.39 "Hg (Aug 16, 7:30 AM)
Low52 °F (Aug 22, 2:30 AM)30% (Aug 26, 4:00 PM)29.83 "Hg (Aug 17, 4:30 PM)
Average69 °F73%30.11 "Hg
* Reported Aug 12 4:00 AM — Aug 27 4:00 AM, Rheinfelden (Baden), Weather by CustomWeather, © 2016

Note: Actual official high and low records may vary slightly from our data, if they occured in-between our weather recording intervals... More about our weather records

Advertising

Rheinfelden (Baden) Weather History for the Previous 24 Hours

Scroll right to see more
 ConditionsComfort  
Time TempWeatherWind HumidityBarometerVisibility
4:00 AM
Sat, Aug 27
63 °FClear.1 mph88%30.07 "Hg10 mi
3:30 AM63 °FClear.No wind94%30.07 "Hg10 mi
3:00 AM64 °FClear.1 mph88%30.07 "Hg10 mi
2:30 AM64 °FClear.No wind88%30.07 "Hg10 mi
2:00 AM64 °FClear.No wind94%30.07 "Hg10 mi
1:30 AM64 °FClear.2 mph94%30.07 "Hg10 mi
1:00 AM64 °FClear.1 mph88%30.07 "Hg10 mi
12:30 AM66 °FClear.2 mph88%30.07 "Hg10 mi
12:00 AM66 °FClear.No wind88%30.07 "Hg10 mi
11:30 PM
Fri, Aug 26
68 °FClear.1 mph88%30.07 "Hg10 mi
11:00 PM68 °FClear.3 mph83%30.07 "Hg10 mi
10:30 PM70 °FClear.1 mph83%30.07 "Hg10 mi
10:00 PM70 °FClear.2 mph83%30.07 "Hg10 mi
9:30 PM72 °FClear.6 mph83%30.04 "Hg10 mi
9:00 PM73 °FSunny.2 mph83%30.04 "Hg10 mi
8:30 PM77 °FSunny.3 mph74%30.04 "Hg10 mi
8:00 PM84 °FSunny.3 mph58%30.04 "Hg10 mi
7:30 PM90 °FSunny.3 mph49%30.04 "Hg10 mi
7:00 PM93 °FSunny.2 mph34%30.04 "Hg10 mi
6:30 PM93 °FPassing clouds.5 mph32%30.04 "HgN/A
6:00 PM93 °FPassing clouds.7 mph34%30.04 "HgN/A
5:30 PM95 °FSunny.3 mph32%30.04 "Hg10 mi
5:00 PM95 °FPassing clouds.5 mph30%30.04 "HgN/A
4:30 PM95 °FSunny.3 mph30%30.04 "Hg10 mi
4:00 PM93 °FSunny.3 mph30%30.04 "Hg10 mi
3:30 PM93 °FSunny.2 mph32%30.04 "Hg10 mi
3:00 PM93 °FSunny.2 mph34%30.07 "Hg10 mi
2:30 PM93 °FSunny.2 mph36%30.07 "Hg10 mi
2:00 PM91 °FSunny.3 mph41%30.07 "Hg10 mi
1:30 PM90 °FPassing clouds.3 mph41%30.07 "HgN/A
1:00 PM90 °FSunny.2 mph43%30.07 "Hg10 mi
12:30 PM88 °FSunny.3 mph49%30.07 "Hg10 mi
12:00 PM86 °FSunny.3 mph49%30.09 "Hg10 mi
11:30 AM84 °FSunny.3 mph55%30.09 "Hg10 mi
11:00 AM82 °FPassing clouds.5 mph58%30.09 "HgN/A
10:30 AM79 °FPassing clouds.6 mph65%30.09 "HgN/A
10:00 AM79 °FPassing clouds.6 mph70%30.09 "HgN/A
9:30 AM75 °FPassing clouds.6 mph78%30.09 "HgN/A
9:00 AM73 °FPassing clouds.6 mph78%30.09 "HgN/A
8:30 AM70 °FPassing clouds.5 mph88%30.09 "HgN/A
8:00 AM68 °FPassing clouds.3 mph88%30.09 "HgN/A
7:30 AM66 °FPassing clouds.5 mph88%30.07 "HgN/A
7:00 AM64 °FClear.6 mph94%30.07 "Hg10 mi
6:30 AM63 °FClear.5 mph94%30.07 "Hg10 mi
6:00 AM64 °FClear.3 mph88%30.07 "Hg10 mi
5:30 AM64 °FClear.5 mph94%30.07 "Hg10 mi
5:00 AM64 °FClear.5 mph94%30.04 "Hg10 mi
Weather by CustomWeather, © 2016

See weather overviewHow to use our weather pages